Weather observations for the past three days for
Detroit, Willow Run Airport
Imperial (Metric)
Date Time (edt) Wind (mph) Vis. (mi.) Weather Sky Cond. Temperature (ºF) Relative Humidity Wind Chill (°F) Heat Index (°F) Pressure Precipitation (in)
Air Dwpt 6 hour altimeter (in) sea level (mb) 1 hr 3 hr 6 hr
Max. Min.
23 03:53 Calm 5.00 Fog/Mist CLR 66 64 93% 30.02 1015.9
23 02:53 Calm 5.00 Fog/Mist FEW110 66.9 64.9 93% 30.02 1016.0
23 01:53 SW 3 7.00 Mostly Cloudy BKN110 69.1 66.9 72 68 93% 30.02 1015.9
23 00:53 Calm 7.00 Overcast OVC110 69.1 66 90% 30.02 1015.9
22 23:53 Calm 7.00 Overcast OVC110 70 66.9 90% 30.02 1016.0
22 22:53 Calm 5.00 Fog/Mist OVC110 69.1 66.9 93% 30.02 1015.9
22 21:53 N 3 6.00 Fog/Mist BKN110 69.1 66.9 93% 30.01 1015.6
22 20:53 N 3 7.00 Overcast OVC100 70 66.9 90% 30 1015.2
22 19:53 Calm 9.00 Overcast OVC110 72 66.9 79 71.1 84% 29.99 1015.0
22 18:53 N 5 10.00 Overcast FEW025 OVC100 71.1 66 84% 30 1015.2
22 17:53 N 5 9.00 Overcast SCT023 BKN070 OVC110 73 68 84% 30 1015.4
22 16:53 N 7 9.00 Thunderstorm in Vicinity OVC100 73 66.9 81% 30.01 1015.7
22 15:53 NE 8 10.00 Thunderstorm BKN035 77 66 69% 79 30.02 1015.9
22 14:53 S 6 10.00 Thunderstorm in Vicinity FEW041 FEW048 BKN120 79 64 60% 81 30.02 1015.8
22 13:53 S 7 10.00 Fair CLR 79 63 81 68 58% 81 30.02 1016.0
22 12:53 Calm 10.00 Fair CLR 79 63 58% 81 30.03 1016.2
22 11:53 Calm 10.00 Fair CLR 79 64 60% 81 30.05 1016.9
22 10:53 Calm 10.00 Fair CLR 77 64 64% 79 30.06 1017.2
22 09:53 Calm 10.00 Fair CLR 73.9 63 69% 30.06 1017.2
22 08:53 NE 5 10.00 Overcast OVC065 71.1 63 76% 30.06 1017.2
22 07:53 NE 5 10.00 A Few Clouds FEW060 66.9 63 69.1 64.9 87% 30.05 1017.0
22 06:53 N 3 10.00 Fair CLR 66 62.1 87% 30.06 1017.0
22 05:53 Calm 10.00 Mostly Cloudy BKN048 64.9 62.1 90% 30.06 1017.1
22 04:53 N 3 10.00 Fair CLR 64.9 61 87% 30.05 1016.9
22 03:53 NE 3 10.00 Fair CLR 66.9 62.1 84% 30.06 1017.2
22 02:53 NE 6 10.00 Fair CLR 68 64 87% 30.08 1017.8
22 01:53 NE 6 10.00 Fair CLR 69.1 64 81 68 84% 30.09 1018.1
22 00:53 NE 5 10.00 Fair CLR 70 64 82% 30.1 1018.4
21 23:53 Calm 10.00 A Few Clouds FEW050 73 62.1 69% 30.1 1018.3
21 22:53 E 6 10.00 Overcast BKN049 OVC060 73.9 63 69% 30.1 1018.6
21 21:53 N 3 10.00 Mostly Cloudy BKN050 72 64 76% 30.08 1018.1
21 20:53 S 7 10.00 Overcast FEW050 SCT060 OVC095 78.1 64 62% 80 30.07 1017.6
21 19:53 SW 3 10.00 Overcast SCT047 OVC055 81 63 84.9 80.1 54% 82 30.06 1017.3
21 18:53 E 7 10.00 Overcast BKN055 OVC065 81 63 54% 82 30.07 1017.4
21 17:53 Vrbl 3 10.00 Mostly Cloudy SCT050 BKN085 82.9 61 48% 83 30.07 1017.5
21 16:53 SW 3 10.00 A Few Clouds FEW055 82 61 49% 83 30.08 1018.0
21 15:53 Calm 10.00 Mostly Cloudy BKN048 BKN070 82.9 62.1 49% 84 30.1 1018.5
21 14:53 Calm 10.00 Partly Cloudy FEW050 SCT080 82.9 61 48% 83 30.11 1018.8
21 13:53 Calm 10.00 Mostly Cloudy BKN047 82.9 61 84 64.9 48% 83 30.11 1018.8
21 12:53 E 5 10.00 Fair CLR 82 61 49% 83 30.11 1018.9
21 11:53 Vrbl 3 10.00 Fair CLR 80.1 62.1 54% 81 30.11 1019.0
21 10:53 E 5 6.00 Fair with Haze CLR 77 62.1 60% 79 30.11 1019.1
21 09:53 Vrbl 3 10.00 Fair CLR 73.9 62.1 67% 30.13 1019.6
21 08:53 N 7 10.00 Fair CLR 70 62.1 76% 30.12 1019.3
21 07:53 NW 3 10.00 Fair CLR 64.9 61 66.9 62.1 87% 30.11 1019.1
21 06:53 W 3 10.00 Fair CLR 64 60.1 87% 30.11 1019.1
21 05:53 W 5 10.00 Fair CLR 64 60.1 87% 30.11 1018.9
21 04:53 W 3 10.00 Fair CLR 64 60.1 87% 30.1 1018.7
21 03:53 Calm 10.00 Fair CLR 64 59 84% 30.1 1018.5
21 02:53 Calm 10.00 Fair CLR 64 59 84% 30.1 1018.6
21 01:53 Calm 10.00 Fair CLR 64.9 59 75.9 63 81% 30.1 1018.7
21 00:53 Calm 10.00 Fair CLR 64 60.1 87% 30.1 1018.6
20 23:53 Calm 10.00 Fair CLR 66.9 61 81% 30.11 1018.9
20 22:53 Calm 10.00 Fair CLR 66.9 59 76% 30.1 1018.8
20 21:53 Calm 10.00 Fair CLR 70 60.1 71% 30.1 1018.7
20 20:53 Calm 10.00 Fair CLR 75 57.9 55% 78 30.09 1018.3
20 19:53 NW 3 10.00 Fair CLR 75.9 57.9 80.1 75.9 54% 78 30.08 1018.1
20 18:53 Calm 10.00 Fair CLR 79 55.9 45% 80 30.09 1018.2
20 17:53 W 8 10.00 Fair CLR 79 55 44% 80 30.09 1018.6
20 16:53 NW 7 10.00 Fair CLR 80.1 55 42% 80 30.1 1018.7
20 15:53 NW 6 10.00 Fair CLR 78.1 55.9 47% 79 30.11 1019.2
20 14:53 N 9 10.00 Fair CLR 78.1 57.9 50% 79 30.12 1019.4
20 13:53 NW 7 10.00 Partly Cloudy SCT050 78.1 57 79 64 48% 79 30.12 1019.5
20 12:53 Calm 10.00 A Few Clouds FEW050 78.1 54 43% 79 30.13 1019.7
20 11:53 W 6 10.00 Partly Cloudy SCT048 77 55 47% 78 30.14 1020.0
20 10:53 Vrbl 5 10.00 Partly Cloudy SCT050 75.9 55.9 50% 78 30.14 1020.0
20 09:53 Calm 10.00 Fair CLR 73 57.9 59% 30.14 1020.0
20 08:53 Calm 10.00 Fair CLR 69.1 59 70% 30.14 1020.1
20 07:53 Calm 10.00 Fair CLR 64 59 64 57 84% 30.14 1019.9
20 06:53 Calm 10.00 Fair CLR 59 57 93% 30.13 1019.6
20 05:53 Calm 10.00 Fair CLR 57 55.9 96% 30.13 1019.7
20 04:53 Calm 10.00 Fair CLR 57.9 55.9 93% 30.13 1019.7
Date Time (edt) Wind (mph) Vis. (mi.) Weather Sky Cond. Air Dwpt Max. Min. Relative Humidity Wind Chill (°F) Heat Index (°F) altimeter (in) sea level (mb) 1 hr 3 hr 6 hr
6 hour
Temperature (ºF) Pressure Precipitation (in)